Regional Weather Roundup
Issued by NWS

Home | Current Version | Previous Version | Graphics & Text | Print | Product List | Glossary On
Versions: 1 2 3 4 5 6 7 8 9 10 11 12 13 14 15 16 17 18 19 20 21 22 23 24 25 26 27 28 29 30 31 32 33 34 35 36 37 38 39 40 41 42 43 44 45 46 47 48 49 50
000
ASUS43 KLSX 311257
RWRMO

WEATHER SUMMARY FOR MISSOURI
NATIONAL WEATHER SERVICE SPRINGFIELD MO
800 AM CDT MON AUG 31 2015

NOTE: "FAIR" INDICATES FEW OR NO CLOUDS BELOW 12,000 FEET WITH NO
       SIGNIFICANT WEATHER AND/OR OBSTRUCTIONS TO VISIBILITY.
       CURRENT SKY AND/OR WEATHER CONDITIONS ARE NOT AVAILABLE FOR
       CHILLICOTHE AND FARMINGTON.

MOZ001>031-035>038-043-044-053-054-311400-
...NORTHERN AND WESTERN MISSOURI...

CITY           SKY/WX    TMP DP  RH WIND       PRES   REMARKS
KANSAS CTY INT PTSUNNY   71  70  96 S6        29.99R FOG
LEE`S SUMMIT   SUNNY     72  69  90 S7        30.00R FOG
ST JOSEPH      MOSUNNY   68  67  96 CALM      29.98R FOG
CHILLICOTHE      N/A     72  71  97 SE3       30.01R

$$
MOZ066>068-077>081-088>096-101>105-311400-
...SOUTHWEST MISSOURI...

CITY           SKY/WX    TMP DP  RH WIND       PRES   REMARKS
SPRINGFIELD    MOSUNNY   72  67  84 SE9       30.05R
JOPLIN         SUNNY     73  67  81 S9        30.02R

$$
MOZ032>034-039>042-045>050-055>058-069>072-311400-
...CENTRAL MISSOURI...

CITY           SKY/WX    TMP DP  RH WIND       PRES   REMARKS
COLUMBIA       NOT AVBL
JEFFERSON CITY SUNNY     73  69  87 SE3       30.04R
SEDALIA        SUNNY     73  69  87 S8        30.03R

$$
MOZ051-052-059>065-311400-
...EAST CENTRAL MISSOURI...

CITY           SKY/WX    TMP DP  RH WIND       PRES   REMARKS
ST LOUIS INTL  PTSUNNY   77  69  76 S5        30.07R

$$
MOZ072>076-082>087-097>100-106>115-311400-
...SOUTH CENTRAL AND SOUTHEAST MISSOURI...

CITY           SKY/WX    TMP DP  RH WIND       PRES   REMARKS
CAPE GIRARDEAU MOSUNNY   71  69  93 S3        30.11R
POPLAR BLUFF   MOSUNNY   72  70  93 SE3       30.09R
WEST PLAINS    CLOUDY    70  68  93 S5        30.11R FOG

$$



USA.gov is the U.S. government's official web portal to all federal, state and local government web resources and services.